• In Belgium
  • List of Countries
  • For 7 days
  • Water Temperature
  • Satellite Maps
  • Weather Map
  • Weather Widgets
  • user-avatar
    Login

    Hourly Weather Arlon

    Today, 12 December, Tuesday

    Time Temperature Precipitation Wind Pressure Humidity
    00:00 -4°C° 0 mm 8 mps 713 mmHg 88%
    01:00 -4°C° 0.1 mm 8 mps 714 mmHg 88%
    02:00 -2°C° 0.1 mm 7 mps 716 mmHg 87%
    03:00 -2°C° 0.1 mm 7 mps 718 mmHg 87%
    04:00 -2°C° 0 mm 6 mps 719 mmHg 89%
    05:00 -2°C° 0 mm 5 mps 720 mmHg 91%
    06:00 -2°C° 0 mm 4 mps 722 mmHg 93%
    07:00 -2°C° 0 mm 4 mps 723 mmHg 93%
    08:00 -2°C° 0 mm 4 mps 724 mmHg 93%
    09:00 -2°C° 0 mm 4 mps 725 mmHg 92%
    10:00 -1°C° 0 mm 5 mps 726 mmHg 90%
    11:00 -1°C° 0 mm 5 mps 726 mmHg 87%
    12:00 0°C° 0 mm 5 mps 727 mmHg 84%
    13:00 0°C° 0.1 mm 4 mps 727 mmHg 84%
    14:00 0°C° 0.1 mm 4 mps 728 mmHg 84%
    15:00 0°C° 0.1 mm 3 mps 728 mmHg 84%
    16:00 0°C° 0 mm 3 mps 729 mmHg 86%
    17:00 0°C° 0 mm 3 mps 729 mmHg 88%
    18:00 -1°C° 0 mm 2 mps 730 mmHg 90%
    19:00 -1°C° 0 mm 2 mps 730 mmHg 92%
    20:00 -1°C° 0 mm 3 mps 730 mmHg 93%
    21:00 -2°C° 0 mm 3 mps 731 mmHg 94%
    22:00 -2°C° 0 mm 3 mps 731 mmHg 95%
    23:00 -2°C° 0 mm 3 mps 731 mmHg 95%

    Tomorrow, 13 December, Wednesday

    Time Temperature Precipitation Wind Pressure Humidity
    00:00 -2°C° 0 mm 3 mps 731 mmHg 96%
    01:00 -3°C° 0 mm 4 mps 730 mmHg 96%
    02:00 -3°C° 0 mm 4 mps 730 mmHg 95%
    03:00 -2°C° 0 mm 5 mps 730 mmHg 94%
    04:00 -2°C° 0 mm 5 mps 729 mmHg 93%
    05:00 -3°C° 0 mm 6 mps 729 mmHg 92%
    06:00 -2°C° 0 mm 6 mps 728 mmHg 92%
    07:00 -2°C° 0.5 mm 6 mps 728 mmHg 91%
    08:00 -1°C° 0.5 mm 7 mps 727 mmHg 90%
    09:00 -1°C° 0.5 mm 7 mps 727 mmHg 90%
    10:00 -1°C° 1 mm 7 mps 726 mmHg 91%
    11:00 -1°C° 1 mm 7 mps 725 mmHg 92%
    12:00 -1°C° 1 mm 7 mps 724 mmHg 93%
    13:00 0°C° 0.9 mm 7 mps 724 mmHg 94%
    14:00 0°C° 0.9 mm 7 mps 723 mmHg 94%
    15:00 +2°C° 0.9 mm 7 mps 722 mmHg 95%
    16:00 +2°C° 0.4 mm 7 mps 722 mmHg 95%
    17:00 +3°C° 0.4 mm 7 mps 721 mmHg 94%
    18:00 +2°C° 0.4 mm 8 mps 720 mmHg 94%
    19:00 +4°C° 0.6 mm 8 mps 720 mmHg 93%
    20:00 +3°C° 0.6 mm 9 mps 719 mmHg 93%
    21:00 +3°C° 0.6 mm 10 mps 718 mmHg 93%
    22:00 +4°C° 0.6 mm 8 mps 718 mmHg 91%
    23:00 +3°C° 0.6 mm 7 mps 718 mmHg 88%

    Day after tomorrow, 14 December, Thursday

    Time Temperature Precipitation Wind Pressure Humidity
    00:00 +2°C° 0.6 mm 6 mps 718 mmHg 86%
    01:00 +2°C° 0.5 mm 7 mps 719 mmHg 84%
    02:00 +1°C° 0.5 mm 8 mps 719 mmHg 83%
    03:00 0°C° 0.5 mm 9 mps 720 mmHg 82%
    04:00 -1°C° 0.1 mm 7 mps 720 mmHg 82%
    05:00 -1°C° 0.1 mm 6 mps 721 mmHg 82%
    06:00 -1°C° 0.1 mm 5 mps 721 mmHg 82%
    07:00 -1°C° 0 mm 5 mps 721 mmHg 83%
    08:00 0°C° 0 mm 5 mps 721 mmHg 83%
    09:00 +1°C° 0 mm 6 mps 722 mmHg 83%
    10:00 +1°C° 0.3 mm 6 mps 721 mmHg 84%
    11:00 +2°C° 0.3 mm 7 mps 720 mmHg 85%
    12:00 +2°C° 0.3 mm 7 mps 719 mmHg 86%
    13:00 +2°C° 1.9 mm 7 mps 717 mmHg 87%
    14:00 +2°C° 1.9 mm 7 mps 716 mmHg 89%
    15:00 +3°C° 1.9 mm 7 mps 714 mmHg 90%
    16:00 +2°C° 1.9 mm 7 mps 714 mmHg 90%
    17:00 +2°C° 1.9 mm 7 mps 713 mmHg 90%
    18:00 +2°C° 1.9 mm 7 mps 713 mmHg 89%
    19:00 0°C° 0.1 mm 7 mps 714 mmHg 88%
    20:00 -1°C° 0.1 mm 6 mps 715 mmHg 87%
    21:00 -1°C° 0.1 mm 6 mps 716 mmHg 85%
    22:00 -2°C° 0.1 mm 6 mps 716 mmHg 86%
    23:00 -2°C° 0.1 mm 6 mps 717 mmHg 86%

    15 December, Friday

    Time Temperature Precipitation Wind Pressure Humidity
    00:00 -1°C° 0.1 mm 5 mps 717 mmHg 87%
    01:00 -2°C° 0.6 mm 6 mps 717 mmHg 87%
    02:00 -1°C° 0.6 mm 6 mps 717 mmHg 88%
    03:00 -1°C° 0.6 mm 6 mps 717 mmHg 89%
    04:00 -1°C° 0.1 mm 6 mps 717 mmHg 90%
    05:00 -2°C° 0.1 mm 6 mps 717 mmHg 91%
    06:00 -1°C° 0.1 mm 5 mps 717 mmHg 92%
    07:00 -1°C° 0.2 mm 5 mps 718 mmHg 92%
    08:00 -2°C° 0.2 mm 6 mps 718 mmHg 92%
    09:00 -2°C° 0.2 mm 6 mps 718 mmHg 93%
    10:00 -1°C° 0.8 mm 6 mps 718 mmHg 92%
    11:00 -1°C° 0.8 mm 6 mps 718 mmHg 91%
    12:00 -1°C° 0.8 mm 6 mps 718 mmHg 91%
    13:00 0°C° 1 mm 5 mps 718 mmHg 92%
    14:00 0°C° 1 mm 4 mps 718 mmHg 94%
    15:00 0°C° 1 mm 4 mps 718 mmHg 96%
    16:00 0°C° 0.2 mm 4 mps 719 mmHg 96%
    17:00 0°C° 0.2 mm 4 mps 719 mmHg 96%
    18:00 -1°C° 0.2 mm 4 mps 720 mmHg 96%
    19:00 0°C° 0 mm 3 mps 721 mmHg 95%
    20:00 -1°C° 0 mm 3 mps 722 mmHg 95%
    21:00 -1°C° 0 mm 2 mps 722 mmHg 94%
    22:00 -2°C° 0 mm 2 mps 723 mmHg 95%
    23:00 -2°C° 0 mm 2 mps 724 mmHg 95%

    16 December, Saturday

    Time Temperature Precipitation Wind Pressure Humidity
    00:00 -2°C° 0 mm 2 mps 724 mmHg 95%
    01:00 -1°C° 0 mm 1 mps 725 mmHg 95%
    02:00 -1°C° 0 mm 1 mps 725 mmHg 95%
    03:00 -1°C° 0 mm 1 mps 726 mmHg 95%
    04:00 -1°C° 0 mm 1 mps 726 mmHg 95%
    05:00 -1°C° 0 mm 1 mps 726 mmHg 95%
    06:00 -1°C° 0 mm 1 mps 727 mmHg 95%
    07:00 -2°C° 0 mm 2 mps 727 mmHg 95%
    08:00 -2°C° 0 mm 2 mps 728 mmHg 95%
    09:00 -1°C° 0 mm 3 mps 729 mmHg 94%
    10:00 -1°C° 0 mm 3 mps 729 mmHg 94%
    11:00 0°C° 0 mm 3 mps 729 mmHg 94%
    12:00 0°C° 0 mm 3 mps 730 mmHg 93%
    13:00 0°C° 0.1 mm 3 mps 730 mmHg 93%
    14:00 0°C° 0.1 mm 3 mps 730 mmHg 93%
    15:00 0°C° 0.1 mm 3 mps 730 mmHg 93%
    16:00 0°C° 0.1 mm 3 mps 731 mmHg 93%
    17:00 -1°C° 0.1 mm 3 mps 731 mmHg 94%
    18:00 -2°C° 0.1 mm 2 mps 732 mmHg 95%
    19:00 -2°C° 0 mm 2 mps 732 mmHg 95%
    20:00 -2°C° 0 mm 2 mps 732 mmHg 95%
    21:00 -2°C° 0 mm 2 mps 733 mmHg 95%
    22:00 -2°C° 0 mm 2 mps 733 mmHg 95%
    23:00 -2°C° 0 mm 2 mps 734 mmHg 95%

    17 December, Sunday

    Time Temperature Precipitation Wind Pressure Humidity
    00:00 -2°C° 0 mm 2 mps 734 mmHg 95%
    01:00 -2°C° 0 mm 2 mps 734 mmHg 95%
    02:00 -2°C° 0 mm 2 mps 734 mmHg 95%
    03:00 -2°C° 0 mm 2 mps 735 mmHg 95%
    04:00 -3°C° 0 mm 2 mps 735 mmHg 95%
    05:00 -3°C° 0 mm 2 mps 735 mmHg 95%
    06:00 -3°C° 0 mm 2 mps 736 mmHg 95%
    07:00 -3°C° 0 mm 2 mps 736 mmHg 95%
    08:00 -3°C° 0 mm 2 mps 737 mmHg 94%
    09:00 0°C° 0 mm 1 mps 737 mmHg 94%
    10:00 -2°C° 0 mm 2 mps 737 mmHg 93%
    11:00 -1°C° 0 mm 2 mps 738 mmHg 91%
    12:00 -1°C° 0 mm 2 mps 738 mmHg 90%
    13:00 -1°C° 0 mm 2 mps 738 mmHg 91%
    14:00 -1°C° 0 mm 2 mps 738 mmHg 92%
    15:00 0°C° 0 mm 1 mps 738 mmHg 93%
    16:00 0°C° 0 mm 1 mps 738 mmHg 93%
    17:00 -1°C° 0 mm 1 mps 739 mmHg 94%
    18:00 -2°C° 0 mm 1 mps 739 mmHg 94%
    19:00 -2°C° 0 mm 1 mps 739 mmHg 94%
    20:00 -2°C° 0 mm 1 mps 739 mmHg 95%
    21:00 -2°C° 0 mm 1 mps 740 mmHg 95%
    22:00 -1°C° 0 mm 1 mps 740 mmHg 95%
    23:00 -1°C° 0 mm 1 mps 740 mmHg 95%
    Show more